Pensacola, FL

9:41 AM CDT on August 27, 2016 (GMT -0500)
Pensacola Naval Air Station

Weather History for KNPA - September, 2013

Change the Weather History Date:

Friday, September 6, 2013

  Actual Average Record
Temperature  
Mean Temperature 80 °F -  
Max Temperature 89 °F 86 °F 91 °F (1998)
Min Temperature 73 °F 71 °F 60 °F (2011)
Cooling Degree Days 16    
Growing Degree Days 30 (Base 50)    
Moisture  
Dew Point 72 °F    
Average Humidity 78    
Maximum Humidity 97    
Minimum Humidity 53    
Precipitation  
Precipitation 0.00 in - - ()
Sea Level Pressure  
Sea Level Pressure 30.05 in    
Wind  
Wind Speed 2 mph (East)    
Max Wind Speed 8 mph    
Max Gust Speed -    
Visibility 10 miles    
Events      
Averages and records for this station are not official NWS values.
T = Trace of Precipitation, MM = Missing Value Source: NWS Daily Summary

Daily Weather History Graph

Daily Weather History Graph

Search for Another Location

Airport or City:

Trip Planner

Search our weather history database for the weather conditions in past years. The results will help you decide how hot, cold, wet, or windy it might be!

Date:

Astronomy

Sep. 06, 2013 Rise Set
Actual Time 6:28 AM CDT 7:05 PM CDT
Civil Twilight 6:04 AM CDT 7:29 PM CDT
Nautical Twilight 5:36 AM CDT 7:58 PM CDT
Astronomical Twilight 5:07 AM CDT 8:27 PM CDT
Moon 7:32 AM CDT (9/6) 7:40 PM CDT (9/6)
Length of Visible Light 13h 25m
Length of Day
12h 36m
New Moon, 2% of the Moon is Illuminated
Sep 6
New Moon
Sep 12
First Quarter
Sep 19
Full
Sep 26
Last Quarter
Oct 4
New

Hourly Weather History & Observations

Time (CDT) Temp. Heat Index Dew Point Humidity Pressure Visibility Wind Dir Wind Speed Gust Speed Precip Events Conditions
12:56 AM 73.9 °F - 73.0 °F 97% 30.08 in 10.0 mi Calm Calm - N/A   Clear
1:56 AM 73.0 °F - 72.0 °F 96% 30.06 in 10.0 mi Calm Calm - N/A   Clear
2:56 AM 73.9 °F - 73.0 °F 97% 30.05 in 10.0 mi North 3.5 mph - N/A   Clear
3:56 AM 73.9 °F - 73.0 °F 97% 30.04 in 10.0 mi Calm Calm - N/A   Clear
4:56 AM 73.9 °F - 72.0 °F 93% 30.05 in 10.0 mi North 3.5 mph - N/A   Clear
5:56 AM 73.0 °F - 72.0 °F 96% 30.05 in 10.0 mi Calm Calm - N/A   Partly Cloudy
6:56 AM 73.0 °F - 72.0 °F 96% 30.07 in 8.0 mi Calm Calm - N/A   Scattered Clouds
7:56 AM 78.1 °F - 73.9 °F 87% 30.08 in 10.0 mi NNE 3.5 mph - N/A   Scattered Clouds
8:56 AM 82.9 °F 87.5 °F 71.1 °F 67% 30.09 in 10.0 mi NE 8.1 mph - N/A   Mostly Cloudy
9:56 AM 84.9 °F 89.4 °F 70.0 °F 61% 30.10 in 10.0 mi ENE 8.1 mph - N/A   Mostly Cloudy
10:56 AM 87.1 °F 92.8 °F 71.1 °F 59% 30.10 in 10.0 mi ENE 5.8 mph - N/A   Mostly Cloudy
11:56 AM 88.0 °F 92.1 °F 69.1 °F 53% 30.09 in 10.0 mi ESE 6.9 mph - N/A   Mostly Cloudy
12:56 PM 88.0 °F 93.8 °F 71.1 °F 57% 30.08 in 10.0 mi SSE 6.9 mph - N/A   Mostly Cloudy
1:56 PM 88.0 °F 92.9 °F 70.0 °F 55% 30.05 in 10.0 mi SSE 8.1 mph - N/A   Mostly Cloudy
2:56 PM 88.0 °F 92.9 °F 70.0 °F 55% 30.03 in 10.0 mi South 3.5 mph - N/A   Mostly Cloudy
3:56 PM 88.0 °F 92.9 °F 70.0 °F 55% 30.01 in 10.0 mi South 6.9 mph - N/A   Mostly Cloudy
4:56 PM 86.0 °F 91.5 °F 71.1 °F 61% 30.00 in 10.0 mi SSW 6.9 mph - N/A   Mostly Cloudy
5:56 PM 84.9 °F 90.7 °F 72.0 °F 65% 30.00 in 10.0 mi Calm Calm - N/A   Mostly Cloudy
6:56 PM 81.0 °F 86.2 °F 73.9 °F 79% 30.00 in 10.0 mi Calm Calm - N/A   Mostly Cloudy
7:56 PM 77.0 °F - 73.0 °F 88% 30.01 in 10.0 mi Calm Calm - N/A   Mostly Cloudy
8:56 PM 77.0 °F - 73.0 °F 88% 30.03 in 10.0 mi Calm Calm - N/A   Mostly Cloudy
9:56 PM 75.9 °F - 73.0 °F 91% 30.03 in 10.0 mi Calm Calm - N/A   Partly Cloudy
10:56 PM 75.9 °F - 73.0 °F 91% 30.02 in 10.0 mi Calm Calm - N/A   Partly Cloudy
11:56 PM 73.0 °F - 72.0 °F 96% 30.01 in 9.0 mi Calm Calm - N/A   Clear